[[[{"header":{"parameterUnit":"kt","parameterCategory":2,"dx":1,"dy":1,"la1":30.253999710083008,"la2":30.299108505249023,"lo1":-89.0895004272461,"lo2":-89.04439544677734,"nx":28,"ny":28,"refTime":"2022-09-21T09:00:00:Z","depth":0,"parameterNumber":1,"parameterNumberName":"U-component_of_WINDS"},"data":[7.8963,7.9224,7.924,7.9546,7.9613,7.9826,7.9908,8.0016,8.0107,8.0367,8.0519,8.0565,8.0665,8.0855,8.1024,8.1041,8.1112,8.1192,8.1199,8.0819,8.0768,8.0719,8.0655,8.1207,8.1208,8.1589,8.1593,8.1595,7.8687,7.8754,7.892,7.9092,7.9236,7.9168,7.93,7.9425,7.9619,7.9733,7.9884,8.0115,8.03,8.0374,8.0557,8.0683,8.0663,8.0732,8.0722,8.0739,8.0334,8.0267,8.0745,8.0745,8.0745,8.0745,8.0745,8.0745,7.8187,7.8342,7.8454,7.8634,7.8725,7.8841,7.8994,7.9043,7.9208,7.9396,7.9385,7.9606,7.9725,7.9953,8.0035,8.021,8.0137,8.0218,8.0239,8.0259,8.028,7.9728,8.0242,8.0241,8.0239,8.0238,8.0237,0,7.7825,7.7827,7.7986,7.8151,7.8284,7.8414,7.8536,7.8631,7.8642,7.8779,7.8978,7.9096,7.9331,7.9522,7.9696,7.9764,7.971,7.9706,7.9763,7.977,7.9756,7.9767,7.9105,7.9691,7.9686,7.9683,7.968,7.9679,7.7322,7.7501,7.7624,7.7735,7.7804,7.7983,7.8093,7.8088,7.8206,7.8358,7.8498,7.8688,7.8839,7.9159,7.9218,7.9395,7.937,7.9592,7.9397,7.9397,7.9375,7.9364,7.9382,7.963,7.9636,7.9641,7.9645,0,7.7038,7.7059,7.7341,7.7446,7.7478,7.7667,7.7758,7.7915,7.7945,7.8166,7.8218,7.8267,7.8464,7.8487,7.8718,7.8724,7.9044,7.9015,7.9002,7.8998,7.9199,7.918,7.9847,7.9934,7.9362,7.9368,7.9372,0,7.6616,7.6852,7.6871,7.7033,7.7296,7.7283,7.7545,7.7596,7.7694,7.7868,7.7806,7.7971,7.7973,7.8144,7.8153,7.8418,7.8461,7.8482,7.8482,7.8488,7.8485,7.8551,7.8524,7.8473,7.847,7.8467,7.8464,0,7.6168,7.6453,7.6717,7.6786,7.692,7.7046,7.7109,7.7218,7.7326,7.7471,7.7542,7.7713,7.7807,7.7942,7.7951,7.7818,7.8275,7.8094,7.8296,7.8297,7.8396,7.8389,7.8974,7.846,7.8459,7.8458,7.8456,0,7.583,7.5971,7.6351,7.646,7.6536,7.6711,7.6874,7.7029,7.7149,7.7164,7.7279,7.7239,7.747,7.7289,7.7609,7.7432,7.753,7.757,7.7585,7.7607,7.7403,7.773,7.8285,7.8343,7.7629,7.7622,7.7616,0,7.5311,7.5698,7.5687,7.6049,7.6229,7.6144,7.6339,7.6446,7.6482,7.6643,7.6684,7.6869,7.6738,7.6799,7.6955,7.7005,7.7235,7.6975,7.7214,7.7223,7.7183,7.7694,7.777,7.816,7.7528,7.7537,7.7543,0,7.4911,7.5066,7.5132,7.5208,7.5343,7.5495,7.5719,7.5897,7.6004,7.6131,7.632,7.6581,7.6493,7.6594,7.658,7.6741,7.708,7.6625,7.6628,7.6707,7.7484,7.7556,7.7621,7.7035,7.7046,7.7055,7.7474,0,7.4396,7.459,7.4767,7.4937,7.5056,7.5282,7.5298,7.5422,7.5394,7.5425,7.5703,7.5797,7.5982,7.6061,7.6036,7.6396,7.6339,7.6243,7.6067,7.6402,7.6541,7.6598,7.5859,7.5854,7.585,7.5847,0,0,7.3895,7.4172,7.415,7.4363,7.4462,7.4368,7.4609,7.4695,7.4873,7.4945,7.4846,7.5228,7.5309,7.5645,7.5751,7.5826,7.5893,7.5774,7.6243,7.6287,7.6328,7.6476,7.6534,7.5839,7.5837,7.5836,7.5835,0,7.3708,7.3784,7.402,7.4107,7.4235,7.4254,7.4311,7.4421,7.4452,7.4722,7.4643,7.4812,7.5117,7.5213,7.5302,7.5734,7.5666,7.579,7.6015,7.6199,7.6249,7.6293,7.6448,7.6504,7.5824,7.5825,7.5825,0,7.3316,7.3394,7.3508,7.3725,7.3808,7.3997,7.3815,7.4022,7.4162,7.4051,7.432,7.4375,7.4505,7.482,7.4962,7.4877,7.5459,7.5278,7.5305,7.5322,7.55,7.556,7.5613,7.4912,7.4909,7.4906,0,0,7.3153,7.3332,7.3413,7.3686,7.3744,7.3775,7.3876,7.3857,7.3971,7.4018,7.4086,7.4203,7.438,7.4497,7.4664,7.5007,7.5034,7.5165,7.5208,7.5243,7.5278,7.5466,7.5525,7.4894,7.4894,7.4893,0,0,7.3076,7.3178,7.3127,7.3445,7.3555,7.3655,7.3823,7.3764,7.3914,7.389,7.387,7.3901,7.4195,7.4253,7.4085,7.4602,7.4428,7.4468,7.4553,7.4608,7.465,7.463,7.3914,0,0,0,0,0,7.289,7.3165,7.3117,7.3172,7.3447,7.3681,7.3716,7.3703,7.358,7.3714,7.3761,7.368,7.4159,7.401,7.4067,7.4254,7.4735,7.4763,7.479,7.498,7.5037,7.5085,0,0,0,0,0,0,7.2912,7.2979,7.311,7.3221,7.3282,7.3671,7.3459,7.3463,7.3565,7.3545,7.3673,7.3684,7.368,7.398,7.4032,7.4209,7.3896,7.4746,7.477,7.4791,7.4999,7.5046,7.5086,0,0,0,0,0,7.2929,7.2982,7.3425,7.3217,7.3271,7.3319,7.3448,7.345,7.3529,7.3602,7.3609,7.351,7.3685,7.3728,7.4011,7.4186,7.386,7.388,7.4761,7.478,7.4797,7.5022,0,0,0,0,0,0,7.2941,7.2988,7.3435,7.3451,7.311,7.3297,7.3325,7.3439,7.3579,7.3589,7.3436,7.3419,7.3692,7.3724,7.3758,7.4178,7.3831,7.3851,7.3863,7.4776,7.479,7.4804,0,0,0,0,0,0,7.2958,7.3002,7.3444,7.331,7.331,7.3277,7.3303,7.3541,7.3582,7.3405,7.3395,7.3427,7.3643,7.3723,7.3749,7.4122,7.3808,7.3827,7.384,7.3849,7.4788,7.4799,0,0,0,0,0,0,7.2976,7.3014,7.3306,7.3306,7.3306,7.3485,7.3488,7.3771,7.3463,7.3401,7.3435,7.3423,7.3645,7.367,7.3743,7.4106,7.4118,7.3809,7.3822,7.3831,7.3837,0,0,0,0,0,0,0,7.2991,7.2743,7.334,7.3303,7.3303,7.3599,7.3604,7.3608,7.346,7.3449,7.3438,7.3428,7.3701,7.3721,7.3742,7.4093,0,0,7.3807,7.3816,0,0,0,0,0,0,0,0,7.2727,7.2739,7.3341,7.3344,7.3347,7.36,7.3603,7.3607,7.3458,7.3449,7.344,7.3432,7.3706,7.3723,7.374,0,0,0,0,0,0,0,0,0,0,0,0,0,0,0,7.3341,7.3344,0,7.36,7.3603,7.3606,7.3457,7.345,7.3442,7.3435,7.3711,7.3725,7.3739,0,0,0,0,0,0,0,0,0,0,0,0,0,0,0,0,0,0,0,0,0,0,0,0,0,0,0,0,0,0,0,0,0,0,0,0,0,0,0,0,0,0,0,0,0,0,0,0,0,0,0,0,0,0,0,0,0,0,0,0,0,0,0,0,0,0,0,0,0]}],[{"header":{"parameterUnit":"kt","parameterCategory":2,"dx":1,"dy":1,"la1":30.253999710083008,"la2":30.299108505249023,"lo1":-89.0895004272461,"lo2":-89.04439544677734,"nx":28,"ny":28,"refTime":"2022-09-21T09:00:00:Z","depth":0,"parameterNumber":2,"parameterNumberName":"V-component_of_WINDS"},"data":[1.0439,1.0541,1.0526,1.0636,1.0641,1.0714,1.0735,1.0761,1.0778,1.0864,1.0911,1.0907,1.0919,1.0972,1.1023,1.102,1.1044,1.1091,1.108,1.088,1.0851,1.0824,1.0799,1.1096,1.1096,1.1289,1.1291,1.1292,1.0296,1.0302,1.0355,1.0396,1.0442,1.0387,1.0416,1.0459,1.0526,1.0547,1.0592,1.0667,1.0724,1.0719,1.0772,1.0821,1.0799,1.0837,1.0833,1.0837,1.0622,1.0595,1.0854,1.0854,1.0854,1.0853,1.0853,1.0853,1.0031,1.0093,1.0108,1.0166,1.0182,1.021,1.0267,1.0259,1.0311,1.0363,1.0335,1.0411,1.043,1.0485,1.0501,1.056,1.0515,1.0552,1.0562,1.0572,1.0586,1.0312,1.0568,1.0567,1.0566,1.0566,1.0565,0,0.9833,0.9816,0.9865,0.9911,0.9951,0.9985,1.0013,1.0048,1.0006,1.0051,1.0115,1.015,1.0218,1.0278,1.0324,1.0331,1.028,1.0273,1.0299,1.0315,1.0323,1.0322,0.9974,1.0266,1.0263,1.0261,1.026,1.0259,0.9566,0.9639,0.9647,0.9684,0.9695,0.9755,0.9788,0.9745,0.9782,0.9811,0.9868,0.9926,0.9971,1.0077,1.0068,1.012,1.0096,1.0209,1.0103,1.0115,1.0099,1.0096,1.0104,1.0231,1.0235,1.0237,1.024,0,0.9418,0.9391,0.9498,0.9498,0.9501,0.958,0.9581,0.964,0.9626,0.9706,0.9723,0.9701,0.9765,0.9737,0.9805,0.9788,0.9921,0.9895,0.9915,0.9909,1.0008,1.0,1.0334,1.0376,1.0066,1.0069,1.0071,0,0.9181,0.9278,0.9231,0.9295,0.9402,0.9355,0.9463,0.9461,0.9475,0.9538,0.9473,0.9534,0.9488,0.9546,0.9521,0.9625,0.9637,0.9631,0.9624,0.9638,0.9639,0.9659,0.9645,0.9602,0.9601,0.9599,0.9598,0,0.8952,0.904,0.9143,0.9159,0.9169,0.9219,0.9225,0.924,0.9273,0.931,0.9331,0.9379,0.9406,0.9444,0.9413,0.9343,0.9538,0.9435,0.9532,0.9534,0.9578,0.9576,0.9877,0.9596,0.9595,0.9595,0.9594,0,0.8756,0.8793,0.8946,0.8952,0.8977,0.9046,0.9088,0.914,0.916,0.9149,0.9178,0.9132,0.9218,0.9118,0.9237,0.9154,0.9185,0.9186,0.9193,0.92,0.9089,0.9265,0.9553,0.9583,0.9205,0.9202,0.9199,0,0.8503,0.8649,0.8609,0.8756,0.8819,0.8742,0.8817,0.8836,0.8826,0.888,0.8869,0.8931,0.885,0.8865,0.8928,0.892,0.9028,0.8905,0.8986,0.8989,0.8984,0.9248,0.9299,0.9492,0.9157,0.9162,0.9165,0,0.8303,0.8311,0.834,0.8356,0.8372,0.8425,0.8511,0.8561,0.8599,0.8627,0.8699,0.8784,0.8726,0.8753,0.872,0.8787,0.8954,0.8716,0.8716,0.8762,0.9133,0.9181,0.9214,0.8918,0.8923,0.8927,0.9132,0,0.8016,0.8084,0.816,0.8196,0.8232,0.8321,0.8289,0.8331,0.8295,0.8282,0.8387,0.8395,0.8447,0.8475,0.8441,0.8602,0.8571,0.8509,0.841,0.8583,0.865,0.8678,0.8313,0.831,0.8308,0.8305,0,0,0.7781,0.7878,0.783,0.791,0.7938,0.7855,0.7954,0.7971,0.8008,0.8029,0.7973,0.8095,0.8105,0.8236,0.8287,0.8308,0.8334,0.8274,0.8501,0.8523,0.8543,0.8615,0.8644,0.8301,0.83,0.8299,0.8298,0,0.7669,0.7677,0.7774,0.7788,0.7809,0.7789,0.7813,0.7819,0.7815,0.7916,0.7848,0.7907,0.8005,0.8025,0.8048,0.8257,0.8204,0.8276,0.84,0.8476,0.8501,0.8523,0.86,0.8627,0.8292,0.8292,0.8292,0,0.7467,0.747,0.7512,0.7568,0.7581,0.7648,0.7535,0.7611,0.766,0.7567,0.7669,0.767,0.7693,0.7819,0.7875,0.7826,0.8087,0.7998,0.8014,0.802,0.8092,0.8123,0.815,0.7792,0.779,0.7789,0,0,0.7375,0.7437,0.7426,0.7541,0.7554,0.7527,0.7559,0.7526,0.7547,0.7555,0.7555,0.7579,0.7635,0.7674,0.7725,0.7869,0.7871,0.7938,0.7962,0.7981,0.7998,0.8075,0.8105,0.7783,0.7783,0.7782,0,0,0.7331,0.7322,0.7281,0.741,0.7432,0.743,0.7502,0.7453,0.7495,0.7481,0.743,0.7434,0.7552,0.7556,0.7478,0.769,0.7592,0.761,0.7683,0.7712,0.7736,0.7733,0.7365,0,0,0,0,0,0.7198,0.7323,0.7286,0.7302,0.7373,0.745,0.7459,0.7419,0.735,0.7409,0.74,0.734,0.7503,0.7433,0.7451,0.7539,0.7704,0.7718,0.7731,0.7859,0.789,0.7916,0,0,0,0,0,0,0.7204,0.7225,0.7282,0.7286,0.7301,0.7445,0.7321,0.7313,0.7343,0.733,0.7343,0.734,0.7308,0.7421,0.7438,0.7522,0.7359,0.771,0.7721,0.7732,0.7869,0.7895,0.7917,0,0,0,0,0,0.7209,0.7225,0.7348,0.7284,0.7298,0.7274,0.7316,0.7308,0.7331,0.7318,0.7313,0.7298,0.7312,0.7323,0.7431,0.7516,0.7347,0.7354,0.7717,0.7727,0.7735,0.7882,0,0,0,0,0,0,0.7212,0.722,0.735,0.7353,0.7233,0.7265,0.7268,0.7305,0.7316,0.7312,0.7269,0.7259,0.7316,0.7324,0.7333,0.7516,0.7337,0.7344,0.7348,0.7724,0.7732,0.7738,0,0,0,0,0,0,0.7211,0.7223,0.7352,0.729,0.7285,0.7257,0.726,0.7346,0.7317,0.7267,0.7258,0.7265,0.7302,0.7325,0.7332,0.7467,0.733,0.7336,0.7341,0.7343,0.773,0.7736,0,0,0,0,0,0,0.7215,0.7225,0.7289,0.7285,0.7281,0.7307,0.7332,0.7407,0.7263,0.7268,0.7249,0.7242,0.7306,0.7311,0.7332,0.7465,0.7467,0.733,0.7334,0.7337,0.7339,0,0,0,0,0,0,0,0.7219,0.7159,0.7334,0.7282,0.7277,0.7377,0.7378,0.7379,0.7261,0.7256,0.725,0.7245,0.7294,0.7301,0.7308,0.7462,0,0,0.7329,0.7333,0,0,0,0,0,0,0,0,0.7154,0.7158,0.7335,0.7335,0.7336,0.7378,0.7378,0.7379,0.726,0.7256,0.7251,0.7247,0.7296,0.7301,0.7307,0,0,0,0,0,0,0,0,0,0,0,0,0,0,0,0.7335,0.7335,0,0.7378,0.7378,0.7379,0.726,0.7256,0.7252,0.7249,0.7297,0.7302,0.7307,0,0,0,0,0,0,0,0,0,0,0,0,0,0,0,0,0,0,0,0,0,0,0,0,0,0,0,0,0,0,0,0,0,0,0,0,0,0,0,0,0,0,0,0,0,0,0,0,0,0,0,0,0,0,0,0,0,0,0,0,0,0,0,0,0,0,0,0,0]}]]]